Wind_Speed
17 17 17 17 16 15 14 14 14 14 14 16 18 17 17 18 18 18 19 21 22 22 22 22 22 21 21 21 21 22 22 22 22 21 21 20 20 19 18 18 18 18 17 17 17 17 17 17 16 15 14 13 12 13 14 14 14 13 13 13 13 13 14 15 15 16 16 16 16 17 18 18 19 20 20 21 21 22 22 22 23 23 24 25 26
18 18 18 18 17 15 14 13 13 12 12 13 14 15 15 16 17 16 17 19 21 21 22 22 22 22 21 21 21 22 22 22 21 21 20 19 19 18 18 17 17 17 17 17 17 16 16 15 14 13 12 12 13 14 14 13 13 13 13 13 14 14 15 15 15 16 16 15 16 17 18 19 20 20 21 21 22 22 23 23 24 25 26 26 27
17 18 18 18 17 16 15 14 13 12 12 13 13 13 14 15 15 14 14 17 19 20 21 21 22 22 21 21 21 21 21 20 20 19 19 18 18 17 16 16 16 16 16 16 15 14 13 12 12 11 11 12 13 13 12 12 13 13 14 14 14 14 15 15 15 15 15 15 17 18 19 19 21 21 21 22 22 23 24 24 25 25 26 27 27
16 17 17 17 17 17 16 15 14 13 12 12 12 12 13 14 14 14 14 14 17 19 19 21 22 22 22 21 21 20 19 18 18 18 17 17 16 16 15 15 15 14 14 14 13 12 11 11 11 11 12 12 12 12 12 13 14 14 14 14 14 14 14 15 15 14 15 16 18 18 19 20 21 21 22 22 23 24 24 25 25 26 26 27 27
15 15 15 16 16 16 16 15 15 13 13 13 12 12 13 13 13 14 14 14 15 17 18 19 20 20 21 20 19 18 17 17 16 16 15 15 15 14 14 14 13 13 13 12 11 10 10 10 11 12 12 12 12 12 13 14 14 14 14 13 13 14 14 14 14 14 15 17 18 18 19 20 20 21 22 23 23 24 24 24 25 25 26 26 27
14 14 14 14 14 15 15 15 15 15 14 13 12 12 13 13 13 14 15 14 14 15 16 17 18 18 18 18 17 16 16 15 15 14 14 14 13 12 12 12 12 11 11 10 10 9 10 11 11 12 12 12 13 13 14 15 14 14 13 13 13 14 14 14 14 14 16 17 18 19 19 20 21 22 23 23 23 24 24 24 25 25 26 27 27
13 13 13 12 12 12 13 14 14 14 14 13 13 13 12 13 12 13 14 14 14 14 14 15 16 16 16 16 15 14 14 13 13 13 12 12 11 11 11 11 11 11 10 9 9 10 10 11 12 12 12 13 14 14 15 14 14 13 12 12 13 13 13 13 13 15 16 17 18 19 19 20 22 23 23 23 23 24 24 25 26 26 27 28 29
12 12 12 12 11 11 11 12 12 13 13 13 13 13 12 12 12 12 13 13 13 13 13 14 14 14 14 14 13 13 12 11 11 11 11 10 10 10 10 10 10 10 10 9 10 10 11 12 12 12 13 14 15 15 14 13 12 12 12 12 12 12 13 13 14 15 17 17 18 19 20 22 23 23 23 23 23 24 26 26 26 27 28 29 29
10 11 11 11 10 10 10 10 10 11 12 12 12 12 12 12 11 11 12 12 12 12 12 13 13 13 13 12 12 11 11 10 9 9 10 10 9 10 10 11 11 10 10 10 10 11 12 12 13 13 14 15 15 14 13 12 11 11 11 11 12 12 13 13 15 16 17 17 18 19 21 23 23 22 22 23 24 26 27 27 28 28 28 29 30
9 9 10 10 9 9 9 9 9 9 10 11 11 11 11 11 11 10 11 11 11 11 11 11 12 12 12 12 11 10 10 9 8 8 8 9 9 10 10 11 11 10 10 10 11 12 12 12 13 14 14 15 14 13 12 11 10 10 10 11 12 12 13 14 16 17 17 17 18 21 22 23 22 22 23 24 25 26 27 28 28 29 29 29 30
8 8 8 9 8 8 8 8 9 9 9 9 9 9 9 9 9 9 9 9 9 9 9 9 10 11 11 11 10 9 9 9 8 8 8 8 8 10 10 11 11 10 10 10 11 11 12 13 14 14 15 14 13 12 11 10 9 9 10 11 12 13 14 15 16 17 17 18 20 22 22 22 22 22 23 24 25 26 27 28 28 29 29 30 30
8 7 7 8 7 7 7 8 8 8 8 8 8 8 8 8 8 8 8 8 8 8 7 7 8 9 9 10 10 9 8 8 8 8 7 7 8 10 10 10 11 11 11 11 11 11 12 14 15 15 14 13 12 11 10 9 9 10 11 12 12 13 14 15 16 16 17 19 21 22 21 21 21 21 22 23 24 25 26 27 28 29 29 29 30
7 7 7 7 7 7 7 7 7 8 7 7 7 7 8 8 7 7 7 7 7 6 6 6 7 7 7 8 8 8 8 8 8 8 7 7 9 10 10 11 12 12 12 11 11 11 12 14 14 14 13 12 10 10 9 9 9 10 11 12 12 13 14 15 16 16 18 20 21 21 20 20 20 21 22 23 24 25 25 26 27 28 28 29 29
7 7 7 7 6 7 7 7 7 7 7 7 7 7 7 7 6 6 6 6 6 5 5 6 6 6 6 6 6 7 7 7 7 8 7 7 8 10 10 11 13 13 12 12 11 11 12 13 13 13 11 10 9 9 9 9 10 11 11 11 12 13 14 15 16 17 19 20 20 20 19 20 20 20 21 22 23 24 25 26 27 27 28 29 29
6 6 6 6 6 7 7 6 6 7 7 7 6 6 6 6 5 5 5 4 4 4 5 5 6 6 5 5 5 6 6 6 6 7 7 7 8 9 10 11 12 13 12 11 11 11 11 12 12 11 10 9 8 9 9 10 10 11 11 11 12 13 15 15 16 17 19 19 19 18 19 19 19 20 21 22 23 23 24 25 26 27 28 28 29
5 5 5 6 6 6 7 7 6 6 6 5 5 5 5 5 4 4 4 4 4 4 4 5 5 5 6 6 5 6 6 6 6 6 6 8 8 8 9 10 12 12 11 10 10 10 10 10 10 9 8 8 8 9 10 10 11 11 11 11 12 13 14 15 16 17 18 18 18 18 18 18 18 19 20 22 22 23 23 24 26 27 28 28 29
4 5 5 5 6 6 7 7 7 6 6 5 4 4 3 3 3 3 3 3 4 4 4 4 4 4 5 6 6 6 6 7 7 6 7 8 8 9 10 10 11 12 10 8 9 9 8 9 9 8 8 8 9 10 10 10 11 10 10 11 12 13 13 14 16 16 17 17 17 17 17 17 17 19 20 21 22 22 22 24 25 27 28 29 30
4 4 4 5 5 6 7 7 7 7 7 6 6 5 3 2 2 2 2 2 3 4 4 4 5 5 5 5 6 6 6 7 7 7 7 8 9 9 10 10 10 11 10 8 8 8 8 8 8 8 8 9 10 10 10 10 10 10 10 11 11 12 13 14 15 15 15 15 15 15 16 16 17 18 19 20 21 21 21 23 24 26 27 28 29
3 3 4 4 5 5 6 6 7 7 7 7 7 6 5 3 2 2 2 1 2 3 3 4 5 5 5 6 6 6 6 6 7 8 8 9 9 9 10 10 9 9 9 8 7 8 8 7 8 8 9 9 9 9 10 10 10 10 10 11 11 11 12 13 14 14 14 14 14 14 15 15 16 17 18 18 19 19 20 22 23 24 26 27 29
3 3 3 4 4 5 5 6 6 6 6 6 6 5 5 4 3 2 2 1 1 2 3 4 5 5 6 6 7 6 7 7 7 7 8 9 9 9 9 9 9 9 8 7 7 7 8 8 8 9 9 9 9 9 10 10 10 10 10 10 10 10 10 11 12 13 12 12 13 13 14 15 15 16 16 17 18 18 19 21 22 23 25 26 28
4 3 3 3 4 4 5 5 5 5 5 5 4 4 4 4 4 3 2 1 1 1 2 4 5 5 6 7 7 7 7 7 7 7 8 8 9 9 9 9 9 9 8 8 7 7 7 8 9 9 9 8 8 9 9 10 10 10 10 10 10 9 9 10 11 11 11 11 12 12 13 14 15 15 16 16 17 18 19 20 21 23 24 25 26
5 3 3 3 3 3 4 4 4 4 4 4 4 3 3 4 4 3 3 2 1 1 2 3 4 5 6 7 8 8 7 7 8 8 8 8 8 9 9 9 8 8 8 8 8 7 7 8 9 9 8 7 8 9 9 10 10 10 10 10 9 8 8 8 9 9 10 10 11 12 13 13 14 15 16 16 17 17 18 19 21 22 23 24 25
6 4 3 2 2 2 2 2 2 3 3 3 3 3 3 3 3 3 3 2 2 1 2 3 3 5 6 7 8 8 8 7 8 8 8 8 8 8 9 8 8 8 8 8 8 8 8 8 8 8 7 7 8 9 9 10 9 10 10 9 8 7 7 7 7 7 8 9 9 10 11 12 13 14 15 15 16 17 17 18 20 20 21 22 23
7 5 3 2 2 2 2 2 2 2 3 3 3 3 3 3 3 3 3 3 3 2 3 3 4 5 6 7 8 8 8 8 8 9 9 9 8 8 9 8 8 8 8 8 8 8 8 8 7 7 6 7 8 9 9 9 9 10 9 8 6 6 5 5 5 5 6 7 8 8 9 10 11 13 14 15 15 16 16 17 18 19 20 21 22
7 6 4 4 3 3 2 2 2 2 2 3 3 3 3 3 3 2 2 2 3 3 3 4 4 5 6 8 8 8 8 8 8 9 9 9 9 8 8 8 8 7 7 7 8 8 8 8 7 7 7 7 8 9 9 9 9 9 8 7 5 4 4 3 3 3 3 5 6 7 7 8 10 12 13 14 15 15 15 15 16 17 19 20 21
9 7 6 5 4 3 3 2 2 1 2 2 3 3 3 2 2 2 2 2 2 3 3 4 4 5 6 8 9 9 8 8 8 8 8 9 9 8 7 8 7 7 6 6 7 7 7 7 7 7 8 8 8 9 9 9 8 8 7 5 4 2 2 1 2 2 3 3 4 5 6 6 8 11 12 13 15 15 14 14 15 17 18 19 20
10 8 8 7 5 4 3 3 2 2 2 2 3 3 3 2 2 2 2 2 2 2 3 3 4 4 6 7 8 9 9 8 8 7 8 8 8 7 6 6 6 6 6 6 6 7 7 7 8 8 8 8 8 8 8 8 7 6 5 4 2 1 1 2 3 4 4 3 3 3 4 6 8 10 11 13 15 15 14 14 14 16 17 18 19
11 10 8 7 6 5 4 3 2 2 2 2 3 3 2 2 2 2 2 2 2 2 2 3 3 4 5 6 8 9 9 8 8 7 8 7 7 7 6 6 5 5 6 6 6 7 7 8 9 9 9 8 7 7 6 6 5 5 4 3 2 2 3 4 6 7 8 7 4 3 4 5 7 9 10 12 14 15 14 13 13 14 16 18 19
13 11 10 9 8 6 5 4 3 3 3 3 3 4 3 3 2 2 2 2 2 2 2 2 3 4 5 6 7 8 8 8 8 8 8 8 7 7 7 6 6 5 5 6 6 7 7 7 8 8 8 7 6 5 5 5 4 3 3 2 2 2 4 6 7 8 10 10 8 5 5 6 7 8 9 11 13 14 14 13 12 13 15 17 18
14 12 11 10 9 8 6 5 4 3 4 4 4 5 4 3 3 3 3 2 1 2 2 1 3 4 5 6 6 7 8 8 7 7 7 7 7 7 7 6 6 6 6 6 6 7 7 7 6 6 5 5 4 3 2 2 2 2 2 3 4 4 5 6 8 9 10 11 10 8 7 7 8 8 8 10 12 14 14 14 13 13 14 16 17
15 14 12 11 10 9 7 5 4 4 4 5 5 5 5 5 4 3 3 2 2 2 1 1 2 3 4 5 6 7 8 8 8 7 7 6 6 6 6 6 6 6 6 7 7 6 7 7 7 6 5 5 4 4 3 3 4 4 4 5 6 7 8 8 8 8 9 10 10 9 8 8 8 8 8 10 11 13 15 15 15 15 15 15 16
17 15 14 12 11 10 8 7 6 5 5 5 6 6 6 6 5 4 4 3 3 2 1 2 2 2 2 4 5 6 7 8 8 8 7 6 5 5 5 5 5 5 5 5 6 6 6 6 7 7 6 6 6 6 6 6 7 7 7 7 7 8 9 10 10 9 9 10 10 9 9 8 8 8 9 10 12 13 15 16 17 17 17 16 16
18 16 15 14 13 11 10 9 8 7 7 7 7 7 7 6 6 5 4 4 4 3 3 3 2 2 2 2 3 4 6 7 8 8 7 6 5 4 4 4 4 3 3 4 4 4 4 4 4 5 5 5 5 6 6 6 7 8 9 9 9 8 8 10 11 11 11 11 11 10 10 9 8 9 10 11 12 13 15 17 17 18 18 17 16
20 18 17 16 14 13 12 11 10 9 9 8 8 8 7 7 7 6 5 4 4 5 5 4 3 3 2 2 2 3 4 5 6 7 7 7 6 5 4 4 4 3 3 3 3 3 3 3 3 3 3 3 4 5 5 6 7 8 9 10 10 9 9 9 11 13 13 12 12 12 12 11 10 9 10 11 12 13 15 16 17 17 17 17 16
22 20 19 18 17 16 14 13 12 12 11 10 9 9 8 8 8 7 6 6 5 6 6 6 6 5 4 4 3 3 3 4 5 5 6 6 7 7 6 6 5 5 5 5 5 4 5 5 5 5 5 5 6 6 6 7 7 8 9 10 11 11 11 9 9 11 14 14 14 13 13 13 12 11 10 11 12 13 15 15 16 16 16 16 16
23 22 21 20 19 18 17 16 15 14 13 12 11 10 9 9 9 8 8 7 7 7 7 7 7 7 6 6 5 5 4 4 4 5 5 5 6 7 7 7 7 7 7 7 7 7 7 7 7 7 6 7 7 7 8 8 8 9 10 11 12 12 12 12 10 10 13 14 14 15 14 14 14 13 12 11 12 13 14 14 15 15 15 15 16
24 24 23 21 21 20 19 18 17 16 15 14 13 11 10 10 10 10 9 9 9 8 9 9 8 8 8 8 7 7 6 6 5 5 5 5 6 7 7 7 8 8 8 8 8 8 8 8 8 8 8 8 8 8 9 9 9 9 10 11 12 12 12 13 12 11 12 14 14 15 15 14 14 13 12 12 12 12 13 13 14 14 14 14 16
25 25 24 23 22 22 21 20 19 18 17 16 15 14 12 12 11 11 11 11 11 11 11 10 10 10 9 9 9 8 8 8 7 7 6 6 7 7 7 7 8 8 8 8 8 8 8 8 9 9 9 8 9 9 9 10 10 10 11 12 13 13 13 14 13 12 12 13 14 15 15 15 14 13 12 12 12 12 12 12 13 14 14 14 16
26 26 25 24 23 23 23 22 21 20 19 18 17 16 15 14 13 13 13 13 13 12 12 12 12 11 10 10 10 9 9 9 8 8 8 8 8 8 8 8 8 8 8 8 8 8 8 8 8 9 8 8 9 9 9 9 9 9 9 11 13 14 14 15 16 15 14 13 13 14 16 17 16 14 13 13 13 12 12 12 12 13 14 15 15
27 27 26 25 24 24 24 23 22 22 21 21 20 19 18 17 16 16 15 15 14 14 14 14 13 12 12 12 11 10 10 9 9 9 8 8 8 8 8 8 8 8 8 8 8 8 7 7 7 7 7 7 8 8 8 8 8 7 7 8 10 12 13 14 16 17 16 16 15 14 16 18 18 16 15 14 14 13 13 13 13 13 14 15 16
27 27 27 27 25 25 24 24 24 24 23 23 22 21 21 20 19 18 17 16 16 15 15 15 15 14 13 13 12 11 10 10 10 10 9 9 9 8 8 8 8 8 8 8 8 8 7 7 7 7 7 7 8 8 8 8 7 7 7 7 7 9 10 12 13 15 16 17 17 16 16 18 18 18 17 16 16 15 14 14 14 14 14 15 16
28 28 27 27 27 26 25 25 25 25 25 25 24 24 24 23 22 21 20 19 18 17 17 17 17 16 16 15 14 13 12 11 11 11 11 11 10 10 10 9 9 9 9 9 9 9 9 8 8 8 8 9 9 9 9 9 7 7 7 7 7 8 9 10 12 14 16 17 17 17 17 18 17 17 17 17 18 18 17 17 17 17 16 17 17
29 28 27 27 27 27 27 26 26 26 26 26 26 26 26 26 25 24 23 21 20 20 19 19 18 18 18 17 16 15 14 14 13 13 13 13 13 13 12 12 12 12 12 12 12 12 12 11 11 11 11 12 12 12 11 11 10 9 9 10 10 10 10 11 12 14 16 17 18 18 18 19 18 17 17 16 16 17 18 17 17 17 17 17 17
30 30 29 28 28 27 27 27 26 26 26 26 26 26 27 27 26 26 25 24 23 22 21 20 20 20 20 19 18 17 16 16 16 16 15 15 15 16 15 15 14 14 15 15 15 15 15 14 14 14 14 14 15 15 15 14 14 12 12 12 13 14 14 15 15 16 16 17 18 18 19 20 20 19 19 18 16 16 16 16 16 17 16 17 17
33 32 30 29 28 28 27 27 26 25 26 26 25 26 28 28 27 27 26 26 25 24 23 22 22 22 21 21 20 19 19 18 18 18 18 18 18 18 18 17 17 17 18 17 18 18 18 17 16 16 17 16 16 17 18 17 17 16 15 15 15 16 17 18 19 19 20 19 19 19 19 21 22 20 19 20 19 18 18 17 16 17 17 17 18
35 33 32 31 30 29 28 27 26 25 25 25 24 25 27 28 28 28 27 26 26 25 25 24 23 23 23 23 22 22 21 21 21 21 21 21 21 21 20 20 19 20 20 20 21 21 21 20 19 19 20 19 19 19 20 20 20 20 20 19 19 19 19 19 20 20 22 22 21 19 20 22 23 21 20 20 19 20 21 19 18 18 18 18 19
37 35 35 34 32 31 30 29 27 26 25 25 24 24 26 28 29 29 27 27 26 26 26 25 24 24 24 24 24 23 23 23 23 24 24 24 24 23 23 23 22 22 23 23 24 24 24 23 22 22 22 22 22 23 23 23 23 23 23 23 24 24 23 22 22 23 23 23 22 21 21 23 23 22 22 21 20 19 21 22 20 19 19 20 21
37 37 37 36 35 34 33 31 30 28 28 27 26 25 26 28 29 28 27 26 26 26 26 26 26 25 25 24 24 25 25 25 25 26 27 27 26 25 25 25 25 25 25 25 26 27 27 26 25 25 24 24 25 25 26 27 27 26 26 26 27 28 26 25 25 25 26 25 24 23 22 24 25 23 22 23 21 19 21 23 22 21 19 21 22
36 37 38 38 37 36 35 34 32 31 30 30 29 28 28 29 29 28 27 26 26 25 25 26 26 26 25 25 25 26 26 26 27 28 29 29 28 27 27 27 27 27 27 28 29 29 29 29 28 26 26 26 26 26 27 28 29 29 28 28 29 30 28 26 27 27 27 28 27 25 23 25 26 25 24 24 23 22 21 21 23 24 21 21 22
34 35 37 38 38 38 37 36 35 33 33 32 32 31 31 32 31 30 28 26 25 24 25 26 27 27 27 27 27 27 26 27 29 29 29 29 29 28 28 28 27 27 28 30 31 29 29 29 29 27 26 26 26 27 27 28 29 30 30 30 30 30 29 27 28 28 27 29 29 27 25 26 27 27 27 26 25 25 23 21 23 25 24 22 23
31 32 33 35 36 37 37 36 36 36 35 35 34 34 34 34 34 33 31 29 26 25 25 26 27 28 28 29 29 28 28 28 30 30 30 30 29 28 28 27 26 25 28 31 32 30 29 28 28 28 27 26 26 25 25 26 28 29 30 30 31 31 30 29 29 28 27 29 30 29 27 27 27 27 28 28 27 27 26 23 24 26 25 24 24
Wind_Direction
85 83 80 79 80 81 87 89 89 94 96 99 103 103 103 98 97 99 98 100 101 102 104 105 107 108 109 109 110 111 110 109 107 104 101 98 95 92 89 87 85 82 79 77 76 77 79 81 84 85 84 81 76 70 65 63 60 60 59 58 55 51 47 43 39 36 37 41 45 47 47 47 45 44 43 41 40 39 38 37 34 31 29 28 26
87 85 82 82 83 84 86 87 90 94 91 91 92 91 91 88 88 90 95 101 104 105 106 106 106 106 106 107 107 108 107 106 103 101 98 95 92 89 87 84 81 78 76 75 75 76 78 80 82 82 80 76 70 65 62 61 61 62 60 57 54 50 45 41 37 38 42 46 48 49 48 47 46 46 45 44 43 41 39 37 33 30 28 26 24
90 87 85 85 85 87 90 92 95 98 97 96 91 88 86 84 84 85 91 99 102 103 104 105 105 105 105 105 105 105 104 103 102 100 96 93 91 88 85 82 79 76 74 74 74 76 78 80 81 80 76 70 65 62 61 63 64 63 60 57 53 48 43 40 39 43 47 51 53 51 50 50 50 49 48 47 44 41 39 35 32 29 26 24 22
93 90 88 88 88 89 90 95 97 97 98 97 95 94 93 90 89 89 90 95 99 102 104 105 105 106 106 106 105 104 103 102 100 98 96 92 89 86 84 80 77 75 73 74 75 77 79 81 80 75 69 64 62 62 63 65 65 63 60 56 51 46 42 41 45 51 54 56 56 54 54 54 53 52 50 48 45 41 37 34 31 28 26 24 23
96 94 92 91 92 91 91 94 97 98 96 95 97 98 98 96 96 96 96 96 98 102 105 106 107 108 108 107 106 105 103 102 99 96 95 92 89 86 84 80 77 75 74 74 76 78 79 79 75 69 65 64 65 67 68 68 67 64 60 55 49 45 43 47 54 58 59 59 59 58 57 56 55 53 51 48 44 41 38 35 31 29 27 26 25
99 97 95 93 93 94 93 93 95 97 97 100 102 100 99 98 99 102 101 101 101 103 106 106 107 108 109 108 107 105 103 101 98 96 94 92 89 87 84 81 79 76 74 73 74 76 76 73 70 67 67 69 72 73 73 72 69 66 60 54 49 46 48 55 61 63 64 63 61 60 58 57 55 53 51 48 45 42 40 37 34 32 31 30 29
103 99 97 96 95 96 96 95 95 96 98 101 102 100 99 98 99 101 102 104 106 107 108 108 110 110 109 109 108 107 104 101 98 97 94 92 91 89 86 84 81 77 72 70 71 71 71 70 70 72 74 76 78 79 77 75 71 66 58 52 49 52 58 64 67 68 66 64 62 61 59 57 55 53 51 49 46 44 42 41 39 37 34 32 30
106 102 100 98 98 98 98 98 97 97 98 99 98 98 99 98 99 100 102 105 107 109 110 111 112 112 112 113 111 109 106 103 101 99 97 94 94 92 88 85 81 77 73 69 69 69 71 74 77 80 81 82 83 82 79 75 70 63 55 52 55 63 70 72 71 70 67 64 62 61 60 58 56 54 52 50 47 45 44 44 42 40 37 34 32
112 108 105 103 102 101 101 102 101 101 101 100 99 100 101 100 99 100 102 104 105 107 109 110 111 111 112 113 113 112 109 107 104 101 98 95 96 95 91 87 82 77 73 70 71 74 76 80 84 85 86 86 85 82 79 75 69 61 57 60 67 75 77 76 73 70 66 63 62 62 61 59 57 55 53 51 48 46 45 44 42 41 38 35 33
121 116 111 108 106 106 106 107 106 105 104 103 101 101 100 100 100 99 100 102 104 104 105 108 110 111 113 113 112 113 112 109 104 99 96 95 96 95 93 90 83 77 72 72 74 78 82 85 88 89 89 89 87 83 79 75 68 62 65 72 78 81 80 77 73 70 67 64 63 62 61 59 57 55 53 50 48 46 44 43 41 40 38 36 34
132 128 121 117 114 113 112 112 112 109 107 106 104 101 99 98 100 100 100 102 102 102 103 104 108 111 114 115 115 115 113 111 107 101 99 100 100 99 98 94 88 80 75 77 79 81 85 89 91 93 92 90 87 83 79 75 69 69 74 81 84 82 79 76 73 70 68 66 64 62 61 59 57 55 52 49 46 44 43 42 40 39 37 35 33
143 140 135 130 126 122 118 118 117 114 111 108 106 104 102 101 101 101 102 103 103 105 107 106 107 110 112 115 117 117 117 115 110 105 104 107 107 106 106 102 96 90 85 85 85 85 88 91 94 94 93 91 88 84 80 76 74 77 82 84 84 82 79 76 72 71 68 66 63 62 61 60 58 56 52 48 45 43 41 40 39 38 36 34 33
151 150 147 144 140 134 128 127 126 123 118 113 110 108 106 104 102 101 100 101 104 110 115 115 112 111 111 114 117 118 120 117 111 103 99 104 112 114 113 111 105 100 97 94 91 88 89 93 95 94 93 92 89 84 80 80 82 84 86 85 84 81 78 75 71 69 66 64 62 62 61 60 58 56 52 48 44 41 40 39 39 37 35 34 32
158 158 157 156 154 149 141 139 139 137 135 131 124 118 112 108 105 103 101 103 108 116 124 123 120 118 117 120 121 120 120 117 110 104 98 101 113 118 117 114 109 105 103 98 94 91 91 95 96 95 95 93 88 84 86 88 88 88 87 86 84 81 78 74 70 67 64 62 61 61 61 60 58 55 52 48 44 40 38 38 37 37 35 33 31
165 165 164 165 165 162 157 155 155 152 149 146 136 125 117 112 108 107 107 111 118 128 131 126 125 127 126 129 134 132 126 120 114 111 109 109 114 117 115 113 109 106 103 99 97 95 95 97 97 97 96 92 89 90 93 93 91 90 87 86 84 80 77 73 70 66 63 62 61 61 61 60 57 54 51 48 45 41 37 36 36 35 34 32 31
166 168 166 169 171 170 168 168 172 168 162 157 145 132 121 116 116 117 122 128 130 136 137 132 132 133 133 137 145 145 139 132 125 120 119 119 121 120 117 115 111 106 103 101 101 101 101 102 100 99 96 92 95 99 99 97 94 92 89 86 84 81 78 74 70 66 64 63 62 62 62 61 57 54 50 47 44 41 37 35 34 33 31 30 29
164 165 164 168 173 175 176 177 180 182 182 180 170 159 145 134 127 128 135 133 131 138 142 139 138 139 142 140 142 144 141 136 132 126 124 126 130 130 126 124 120 115 112 111 110 110 110 108 104 101 99 100 103 104 102 100 98 94 91 88 86 84 81 76 72 67 65 64 64 65 64 61 58 54 50 47 44 40 36 33 32 32 30 29 27
163 163 164 168 173 176 178 179 182 186 191 194 196 199 196 179 147 137 144 137 134 136 137 142 141 142 147 141 137 139 139 136 134 130 129 132 137 140 136 134 131 126 124 124 122 121 118 113 109 105 106 108 109 107 105 104 102 97 94 91 87 85 82 78 74 69 67 66 67 67 65 62 58 54 50 46 43 39 36 33 31 30 30 28 26
162 162 162 165 171 176 177 177 180 184 191 196 203 210 212 214 206 163 156 154 141 131 128 133 135 141 148 141 137 138 136 134 131 128 131 138 143 145 143 141 139 136 133 134 133 129 123 117 112 111 113 114 112 111 111 110 106 100 96 91 88 86 83 79 75 71 69 69 70 69 66 62 58 54 50 45 41 37 33 31 29 29 29 28 26
168 169 166 161 164 173 175 175 177 178 183 189 197 203 202 208 216 197 179 166 138 132 131 131 133 144 151 146 143 142 138 134 131 129 135 144 147 146 147 146 146 145 143 143 141 132 124 119 117 118 119 117 115 117 117 114 109 103 99 94 90 87 82 79 77 74 72 70 70 68 64 59 54 50 46 43 38 34 31 29 27 26 26 27 26
177 178 176 168 163 165 168 169 169 169 172 176 183 188 182 191 203 201 202 206 178 156 137 134 138 148 156 153 148 145 143 139 136 135 138 146 149 149 151 155 155 154 152 150 143 133 127 123 123 125 123 118 118 122 121 117 112 108 103 96 92 87 81 79 78 76 72 69 67 65 60 54 48 44 41 38 34 31 28 26 25 23 23 24 26
181 187 184 178 172 168 166 163 162 159 159 160 162 164 164 173 186 193 204 208 206 195 146 142 145 151 161 161 153 150 150 144 140 141 143 148 152 154 156 161 163 160 157 155 147 138 132 129 131 130 125 121 123 126 125 121 117 112 104 97 93 88 82 78 77 76 71 66 64 61 57 51 44 39 35 32 28 26 25 24 23 21 20 22 23
181 187 190 190 195 199 185 169 164 157 152 152 151 151 154 160 168 175 184 185 179 171 147 144 148 156 166 166 159 156 155 150 145 144 147 149 154 159 160 166 172 168 162 157 151 145 139 137 138 133 127 127 130 132 130 126 123 115 107 102 98 91 84 78 75 75 69 61 60 58 54 49 42 35 29 26 23 20 21 22 22 20 19 20 21
182 184 192 202 210 212 196 171 175 174 165 157 149 150 147 148 156 159 163 166 163 158 150 147 153 162 168 170 167 162 158 155 151 150 151 152 158 164 165 170 178 175 167 160 153 148 144 145 145 136 132 134 136 136 133 131 127 118 112 109 105 97 88 77 71 73 64 55 55 51 48 47 41 31 23 20 18 14 14 18 20 20 20 19 19
185 183 190 207 212 201 182 164 170 181 171 159 152 150 142 139 145 147 154 158 158 160 159 156 157 161 168 173 173 168 162 158 156 155 155 156 161 167 169 172 179 180 173 162 154 150 147 149 148 139 136 138 140 139 136 136 132 123 119 117 112 104 92 74 59 56 45 45 51 47 44 44 39 29 19 15 13 7 6 10 14 18 19 19 17
189 188 190 204 212 202 188 174 170 179 169 158 156 153 145 142 142 140 150 159 160 165 166 165 165 163 169 176 176 172 167 162 159 158 158 160 164 168 172 175 178 179 173 161 153 151 150 149 144 138 138 142 144 143 141 141 136 129 127 126 123 114 93 57 16 352 351 20 43 43 37 34 32 26 18 13 9 1 357 1 9 14 17 16 15
195 194 193 201 210 207 201 194 189 198 185 164 166 170 161 154 149 144 155 161 159 165 171 177 180 178 177 177 177 177 172 166 161 157 155 157 161 167 173 178 180 177 169 161 154 150 147 144 140 139 142 147 149 149 147 145 142 138 138 142 150 171 288 309 313 310 309 326 4 24 21 18 22 22 17 13 6 356 351 355 3 11 14 14 13
200 199 198 201 206 208 207 206 210 217 210 181 171 178 179 179 172 161 164 159 154 166 184 192 197 199 194 185 182 181 176 169 162 156 153 156 161 166 172 178 183 178 168 165 162 156 147 136 133 136 140 146 149 147 143 142 145 148 154 168 199 248 292 302 303 301 297 297 310 340 350 357 9 13 14 13 2 350 347 352 359 7 12 14 12
203 203 203 203 205 208 211 215 220 221 217 200 183 181 185 197 196 178 175 160 146 163 185 208 216 217 214 203 194 189 184 176 167 161 159 160 163 167 172 177 181 180 176 174 170 171 163 145 138 141 142 146 150 146 140 136 142 154 172 204 241 273 295 304 307 309 302 292 290 307 321 329 348 356 3 9 359 346 345 350 356 4 11 13 10
207 207 209 210 209 210 215 222 226 222 217 206 196 189 182 190 206 201 196 186 170 173 177 220 237 228 224 217 207 201 196 188 179 173 169 166 165 168 172 175 178 178 181 181 180 187 190 179 172 169 164 168 177 172 160 154 171 196 220 245 268 283 292 300 308 317 314 299 291 298 309 315 327 337 349 0 354 342 343 349 353 359 7 10 8
210 210 213 216 216 214 219 228 233 226 220 211 204 198 185 183 198 216 214 211 217 207 181 222 244 240 233 226 218 213 207 201 196 190 182 175 171 171 172 175 178 179 182 186 188 197 207 209 209 212 217 227 244 263 275 280 278 270 262 260 269 281 290 297 302 311 317 312 304 303 308 313 319 327 338 349 346 338 338 344 349 353 358 3 3
215 214 216 219 220 220 222 230 234 230 225 218 211 206 196 188 192 208 222 226 232 238 230 233 237 244 246 233 225 223 216 211 209 206 200 191 183 178 175 175 177 177 180 185 188 198 212 221 225 231 242 254 266 276 280 283 284 283 279 273 269 272 282 291 296 300 307 310 309 308 309 313 319 326 336 341 338 333 334 338 343 346 349 353 356
220 218 218 220 221 223 225 229 231 230 227 224 218 213 207 202 199 202 213 226 237 244 245 244 239 240 254 247 232 228 224 221 220 220 217 212 204 193 185 183 180 175 177 179 180 191 203 209 220 232 242 257 274 283 285 283 281 281 283 282 279 274 273 281 289 294 296 298 303 306 307 310 316 323 330 333 330 328 330 334 337 341 344 347 350
222 220 219 220 222 223 226 229 230 230 229 227 224 220 215 212 212 211 212 221 233 240 244 248 244 238 244 252 241 230 230 229 230 231 231 231 229 221 214 213 208 206 207 202 197 205 216 217 225 240 251 265 278 285 288 287 281 280 282 283 284 283 278 273 278 286 291 292 294 298 300 302 308 313 319 322 323 323 326 330 333 337 341 345 348
223 223 221 221 222 223 226 228 230 231 231 231 229 226 224 220 220 221 220 221 227 234 240 245 246 244 242 246 242 232 231 232 233 237 239 241 243 243 242 241 237 235 236 236 236 239 247 252 251 254 260 266 269 273 279 282 282 282 283 284 286 290 291 289 282 283 288 291 292 294 295 298 302 307 311 315 317 319 323 327 330 333 337 343 348
225 225 225 223 222 224 225 228 230 231 232 233 232 230 230 227 225 227 226 227 228 231 236 240 244 246 246 246 243 238 234 235 236 238 240 244 247 250 252 253 252 252 250 250 252 253 256 260 260 258 258 258 259 263 268 273 278 281 284 286 289 293 296 299 299 291 289 292 294 296 298 298 300 304 309 312 314 317 320 324 327 330 335 341 346
228 227 227 226 224 225 226 228 231 232 233 234 233 231 231 231 231 230 230 231 232 233 235 238 240 243 246 248 248 246 243 240 238 237 237 242 245 249 253 256 258 261 262 261 262 263 264 266 266 264 262 260 259 258 259 262 266 271 276 280 285 289 291 294 297 294 291 293 295 297 300 300 300 303 306 311 314 317 319 322 325 328 332 337 343
230 230 230 228 227 228 229 230 232 234 235 236 235 233 232 233 234 232 232 234 235 236 238 238 239 240 243 246 247 249 249 248 248 244 241 242 244 246 250 253 256 260 263 266 268 269 269 270 271 271 270 268 268 266 263 263 262 263 266 271 277 281 284 288 291 290 287 289 291 295 299 301 302 304 307 310 313 314 315 318 323 325 329 334 339
233 234 233 232 230 231 232 233 234 236 237 238 238 237 234 234 235 235 234 235 236 239 241 242 241 240 241 245 246 247 248 251 253 252 250 250 251 252 253 254 258 261 264 267 268 268 269 271 274 276 279 280 279 280 279 278 278 275 271 272 276 279 281 284 289 291 291 287 285 289 294 297 301 303 306 306 307 308 309 314 319 321 324 330 334
235 236 237 236 234 234 235 235 236 238 240 240 241 240 238 236 236 237 236 236 237 239 242 245 246 244 243 245 247 247 247 249 252 254 255 255 256 257 259 260 263 267 270 274 275 275 276 279 282 285 289 290 290 295 299 301 304 306 298 287 282 280 278 279 282 286 289 287 284 283 284 287 293 297 299 299 299 298 299 304 311 316 319 324 329
238 239 240 240 239 238 237 237 238 239 241 242 242 242 242 239 238 238 239 239 239 239 241 244 246 247 246 246 248 249 249 248 250 253 255 257 259 260 260 263 266 269 274 277 280 283 286 289 293 296 301 303 304 309 314 317 323 328 323 312 299 289 284 282 282 282 283 284 283 281 277 278 282 288 292 294 294 295 297 299 303 309 313 319 325
243 242 243 243 244 243 241 241 240 240 241 242 243 244 244 242 240 240 240 241 242 241 241 243 244 246 247 247 247 249 250 250 250 253 256 259 262 261 261 263 267 271 275 277 280 285 288 292 295 299 302 303 306 311 313 314 321 327 325 320 313 304 296 291 290 291 291 292 292 290 285 283 283 284 286 288 287 288 293 297 298 301 306 312 319
246 246 245 245 245 246 246 245 245 244 244 244 244 245 246 245 244 242 242 242 243 244 244 244 245 246 247 247 247 247 250 253 253 255 257 260 263 265 266 267 269 272 275 278 281 284 286 290 294 298 301 302 304 308 308 308 311 313 312 310 308 306 303 299 296 297 300 303 305 304 301 298 297 294 292 292 287 284 288 292 294 296 299 304 312
246 247 247 248 248 249 249 249 250 250 250 249 248 248 249 249 247 246 245 244 245 245 246 247 247 248 248 249 248 247 248 252 255 257 259 261 264 267 270 272 275 276 278 281 283 285 287 290 293 296 298 300 303 306 306 306 307 306 305 303 303 302 302 301 301 302 305 306 309 313 312 309 308 306 301 300 298 294 295 297 296 297 299 302 310
244 246 248 249 250 251 252 253 254 254 255 256 255 254 255 254 253 251 249 248 248 248 248 249 250 251 252 252 252 251 250 251 254 257 260 262 264 266 269 272 276 278 281 283 285 287 289 291 293 296 297 299 302 303 303 305 306 305 304 301 300 299 299 298 300 302 303 303 305 311 314 311 312 314 310 305 303 300 301 303 302 302 303 305 311
244 245 247 248 249 250 252 254 255 256 257 258 258 259 260 260 259 257 254 253 252 252 252 252 252 253 255 256 256 256 254 254 255 257 260 262 264 266 268 271 274 277 280 282 284 286 288 291 293 295 296 298 300 300 300 301 301 301 301 300 299 297 296 297 300 302 301 301 302 305 308 308 309 313 314 312 309 303 301 304 305 305 306 306 309
244 245 246 247 247 248 249 250 251 252 255 256 256 257 260 262 262 261 261 259 258 257 255 255 255 255 256 257 258 259 259 258 257 259 260 262 263 265 268 271 273 276 278 282 284 285 287 289 291 292 294 296 297 298 298 298 298 297 297 297 297 295 294 295 298 298 298 299 302 303 303 303 303 307 310 312 313 308 303 304 305 304 304 304 307
241 242 244 245 246 247 247 248 248 248 250 252 252 252 255 259 262 263 264 264 263 261 260 259 258 257 257 258 259 259 260 260 259 260 261 263 264 266 267 270 272 275 278 280 282 284 286 287 288 290 291 293 294 295 295 295 296 295 294 295 295 293 293 295 294 293 294 296 298 299 301 300 299 301 304 306 310 310 307 307 306 304 303 302 304
239 241 242 244 245 246 246 247 248 248 249 251 251 250 251 253 256 259 261 262 262 263 263 262 261 259 259 258 258 258 259 261 261 261 262 263 265 267 268 269 271 274 277 279 280 281 283 285 287 288 289 291 292 292 292 293 293 293 293 294 293 292 293 295 294 292 292 293 292 294 297 297 297 300 301 301 303 304 306 307 305 304 306 304 304
240 240 242 244 245 246 247 248 249 249 250 251 252 252 253 254 254 254 254 254 256 257 259 260 260 259 258 257 257 257 258 259 260 261 262 264 265 267 268 268 270 273 277 278 278 278 279 282 285 287 288 289 289 288 288 288 288 290 292 293 292 293 294 295 294 294 294 293 292 292 292 292 294 298 299 300 301 300 302 303 302 303 307 307 306
245 242 242 243 245 246 247 248 249 249 250 252 252 253 255 256 257 256 254 252 250 250 252 254 255 256 256 256 257 257 257 258 259 260 261 262 264 265 266 268 271 274 275 275 277 279 280 280 282 285 287 287 285 284 284 283 283 286 289 290 291 292 294 294 295 295 296 295 293 292 292 291 292 294 295 297 299 299 299 301 301 302 304 306 306
Height
5935 5935 5934 5934 5934 5934 5935 5935 5935 5935 5935 5935 5935 5936 5938 5938 5938 5939 5938 5938 5938 5938 5938 5939 5939 5939 5940 5940 5941 5941 5942 5942 5943 5944 5945 5945 5945 5946 5947 5947 5948 5948 5949 5950 5950 5951 5951 5952 5952 5952 5952 5952 5952 5952 5952 5952 5951 5951 5950 5950 5949 5949 5948 5947 5947 5946 5945 5944 5943 5942 5940 5939 5938 5936 5935 5934 5933 5931 5930 5929 5928 5926 5925 5923 5921
5937 5937 5937 5937 5937 5938 5938 5937 5937 5937 5937 5938 5937 5937 5938 5939 5939 5941 5941 5941 5941 5941 5941 5941 5941 5942 5942 5943 5943 5943 5944 5944 5945 5946 5947 5947 5947 5948 5949 5949 5950 5951 5951 5952 5952 5953 5953 5953 5953 5953 5953 5954 5954 5954 5954 5953 5952 5952 5951 5951 5950 5950 5949 5949 5948 5947 5946 5945 5944 5943 5941 5940 5939 5938 5936 5935 5934 5933 5931 5930 5928 5927 5925 5924 5922
5939 5939 5940 5940 5940 5940 5940 5940 5940 5940 5940 5940 5940 5940 5940 5940 5942 5943 5943 5944 5943 5943 5944 5943 5943 5944 5944 5945 5945 5946 5946 5947 5947 5948 5948 5949 5949 5950 5951 5951 5952 5953 5953 5954 5954 5954 5955 5955 5955 5955 5955 5955 5955 5955 5955 5954 5954 5953 5953 5952 5952 5951 5951 5950 5949 5948 5947 5946 5945 5944 5943 5941 5940 5939 5938 5936 5935 5934 5933 5931 5930 5928 5926 5925 5923
5942 5942 5942 5942 5942 5942 5942 5942 5942 5942 5942 5941 5942 5942 5942 5943 5944 5945 5945 5946 5945 5945 5945 5945 5945 5946 5946 5947 5947 5947 5948 5949 5949 5950 5950 5951 5951 5952 5952 5953 5954 5954 5955 5955 5956 5956 5956 5956 5956 5956 5957 5957 5957 5956 5956 5955 5955 5955 5954 5954 5953 5953 5952 5951 5950 5949 5949 5947 5946 5945 5944 5943 5942 5940 5939 5938 5937 5935 5934 5933 5931 5929 5928 5926 5924
5944 5944 5944 5944 5944 5944 5944 5944 5944 5944 5944 5944 5944 5944 5944 5945 5946 5946 5947 5947 5947 5947 5947 5947 5947 5948 5948 5949 5949 5949 5950 5950 5951 5951 5952 5952 5953 5953 5954 5955 5955 5956 5957 5957 5957 5957 5957 5958 5958 5958 5958 5958 5958 5958 5957 5957 5956 5956 5956 5955 5955 5954 5953 5952 5952 5951 5950 5949 5948 5946 5945 5944 5943 5942 5941 5940 5938 5937 5936 5934 5933 5931 5929 5927 5925
5945 5945 5946 5946 5946 5946 5946 5946 5946 5946 5946 5946 5946 5946 5947 5947 5947 5948 5948 5949 5949 5949 5949 5949 5949 5950 5950 5950 5951 5951 5952 5952 5953 5953 5954 5954 5954 5955 5956 5956 5957 5958 5958 5959 5959 5959 5959 5959 5959 5959 5959 5959 5959 5959 5959 5958 5958 5957 5957 5956 5956 5955 5955 5954 5953 5952 5951 5950 5949 5948 5947 5946 5945 5944 5942 5941 5940 5939 5938 5936 5934 5933 5931 5929 5927
5947 5947 5947 5947 5948 5947 5947 5948 5947 5947 5948 5948 5948 5948 5948 5949 5950 5949 5950 5950 5951 5951 5951 5951 5951 5952 5952 5952 5953 5953 5953 5954 5954 5955 5955 5955 5956 5956 5957 5958 5959 5959 5960 5960 5960 5961 5961 5961 5961 5961 5961 5960 5960 5960 5960 5959 5959 5959 5958 5958 5957 5957 5956 5955 5955 5954 5953 5952 5950 5949 5948 5948 5946 5945 5944 5943 5942 5941 5940 5938 5936 5934 5932 5930 5928
5948 5948 5948 5948 5949 5949 5949 5949 5949 5949 5949 5950 5950 5950 5950 5950 5951 5951 5951 5952 5953 5953 5953 5953 5953 5953 5954 5954 5955 5955 5955 5955 5956 5956 5957 5957 5958 5958 5959 5960 5960 5961 5961 5962 5962 5962 5962 5962 5962 5962 5962 5962 5962 5961 5961 5961 5960 5960 5959 5959 5959 5958 5958 5957 5956 5955 5954 5953 5952 5951 5950 5949 5948 5947 5946 5945 5944 5943 5941 5940 5938 5936 5934 5932 5929
5949 5949 5950 5950 5950 5950 5950 5950 5950 5951 5951 5951 5951 5952 5952 5952 5952 5952 5953 5954 5954 5955 5955 5955 5955 5955 5955 5956 5956 5957 5957 5957 5957 5958 5958 5959 5959 5960 5961 5961 5962 5962 5963 5963 5963 5963 5963 5963 5963 5963 5963 5963 5963 5962 5962 5962 5962 5961 5961 5961 5960 5960 5959 5958 5957 5956 5955 5955 5954 5953 5952 5951 5950 5949 5948 5947 5946 5945 5943 5941 5940 5938 5935 5933 5931
5950 5951 5951 5951 5951 5952 5952 5952 5952 5952 5952 5953 5953 5954 5954 5954 5954 5955 5955 5955 5956 5956 5956 5957 5957 5957 5957 5958 5958 5959 5959 5959 5959 5960 5961 5961 5961 5962 5962 5963 5963 5964 5964 5964 5964 5964 5965 5965 5965 5965 5965 5964 5964 5964 5964 5963 5963 5963 5962 5962 5961 5961 5960 5960 5959 5958 5957 5956 5956 5955 5954 5953 5952 5951 5950 5949 5948 5946 5945 5943 5941 5939 5937 5935 5933
5951 5952 5952 5952 5953 5953 5953 5953 5953 5953 5954 5954 5955 5955 5955 5956 5956 5956 5957 5957 5957 5958 5958 5958 5958 5959 5959 5959 5960 5960 5960 5961 5961 5962 5962 5963 5963 5963 5963 5964 5964 5965 5965 5965 5966 5966 5966 5966 5966 5966 5966 5966 5965 5965 5965 5965 5964 5964 5964 5963 5963 5962 5962 5961 5960 5959 5959 5958 5957 5956 5956 5955 5954 5953 5952 5951 5950 5948 5947 5945 5943 5941 5939 5937 5935
5952 5953 5953 5954 5954 5954 5954 5954 5955 5955 5955 5956 5956 5956 5957 5957 5957 5958 5958 5959 5959 5959 5960 5960 5960 5960 5961 5961 5962 5962 5962 5963 5963 5963 5963 5964 5964 5965 5965 5965 5965 5965 5966 5966 5967 5967 5967 5967 5967 5967 5967 5967 5967 5967 5967 5966 5966 5966 5965 5965 5964 5964 5963 5963 5962 5961 5961 5960 5959 5958 5958 5957 5957 5956 5955 5953 5952 5950 5949 5947 5945 5943 5941 5939 5936
5953 5953 5954 5954 5955 5955 5955 5956 5956 5956 5957 5957 5958 5958 5958 5958 5959 5959 5960 5960 5960 5961 5961 5961 5962 5962 5962 5962 5963 5963 5964 5964 5964 5964 5964 5965 5966 5966 5966 5966 5966 5966 5967 5967 5968 5968 5968 5968 5968 5968 5968 5969 5969 5969 5968 5968 5968 5967 5967 5966 5966 5965 5965 5964 5964 5963 5962 5961 5961 5960 5960 5959 5959 5958 5957 5955 5954 5952 5951 5949 5947 5945 5943 5941 5938
5954 5954 5954 5955 5956 5956 5956 5957 5957 5958 5958 5959 5959 5960 5960 5960 5960 5960 5961 5961 5962 5962 5963 5963 5963 5963 5963 5964 5964 5964 5964 5965 5965 5965 5965 5966 5967 5967 5967 5967 5967 5967 5968 5968 5969 5969 5969 5970 5970 5970 5970 5970 5970 5970 5970 5969 5969 5969 5968 5968 5968 5967 5967 5966 5965 5965 5964 5963 5963 5962 5962 5962 5961 5960 5959 5957 5956 5954 5953 5951 5949 5947 5944 5942 5940
5954 5955 5955 5956 5956 5957 5957 5958 5958 5959 5960 5960 5961 5961 5961 5961 5961 5961 5962 5962 5963 5963 5964 5964 5964 5964 5964 5965 5965 5965 5965 5965 5965 5966 5966 5967 5968 5968 5968 5968 5968 5968 5969 5969 5970 5970 5971 5971 5971 5971 5972 5972 5972 5972 5971 5971 5971 5970 5970 5970 5969 5969 5968 5968 5967 5966 5966 5965 5965 5965 5964 5964 5963 5962 5960 5959 5957 5956 5954 5953 5950 5948 5946 5944 5942
5955 5955 5956 5956 5957 5958 5958 5959 5959 5960 5960 5961 5961 5962 5962 5962 5962 5962 5962 5963 5963 5964 5965 5965 5965 5965 5965 5966 5966 5966 5966 5966 5966 5967 5967 5968 5968 5969 5969 5969 5969 5969 5970 5970 5971 5971 5972 5972 5973 5973 5973 5973 5973 5973 5973 5972 5972 5972 5971 5971 5971 5970 5970 5969 5969 5968 5967 5967 5967 5966 5966 5965 5964 5963 5962 5960 5959 5957 5956 5954 5952 5949 5947 5945 5943
5956 5956 5956 5957 5958 5958 5959 5959 5960 5960 5961 5962 5962 5963 5963 5963 5963 5963 5963 5963 5964 5965 5965 5965 5966 5966 5966 5967 5967 5967 5967 5967 5967 5968 5968 5969 5969 5970 5970 5970 5970 5970 5971 5972 5972 5972 5973 5974 5974 5974 5975 5975 5974 5974 5974 5974 5974 5973 5973 5973 5972 5972 5971 5971 5970 5970 5969 5969 5968 5968 5967 5967 5965 5964 5963 5961 5960 5958 5957 5955 5953 5951 5948 5946 5944
5956 5957 5957 5957 5958 5959 5959 5960 5960 5961 5962 5962 5963 5963 5964 5964 5964 5964 5964 5964 5965 5965 5965 5966 5966 5967 5967 5968 5968 5968 5968 5969 5969 5969 5969 5970 5970 5971 5971 5971 5971 5971 5972 5973 5973 5974 5974 5975 5975 5975 5976 5976 5976 5976 5975 5975 5975 5975 5974 5974 5974 5973 5973 5972 5971 5971 5971 5970 5970 5969 5968 5967 5966 5965 5963 5962 5961 5959 5958 5956 5954 5952 5950 5947 5945
5957 5957 5957 5958 5959 5959 5960 5960 5961 5961 5962 5963 5964 5964 5964 5965 5965 5966 5965 5965 5965 5966 5966 5966 5967 5967 5968 5968 5969 5969 5969 5970 5970 5970 5971 5971 5971 5972 5972 5972 5973 5973 5973 5974 5974 5975 5975 5976 5976 5977 5977 5977 5977 5977 5977 5977 5976 5976 5976 5975 5975 5975 5974 5973 5973 5972 5972 5972 5971 5970 5969 5968 5967 5966 5964 5963 5961 5960 5959 5957 5955 5953 5951 5949 5946
5957 5958 5958 5958 5959 5960 5960 5961 5961 5962 5963 5963 5964 5964 5965 5965 5966 5966 5966 5966 5966 5967 5967 5967 5967 5968 5968 5969 5969 5970 5970 5971 5971 5971 5972 5972 5972 5973 5973 5974 5974 5974 5974 5975 5975 5976 5976 5977 5977 5978 5978 5978 5978 5978 5978 5978 5977 5977 5977 5977 5976 5976 5975 5975 5974 5974 5973 5973 5972 5971 5970 5969 5968 5967 5965 5964 5962 5961 5959 5958 5956 5954 5952 5950 5947
5958 5958 5958 5959 5959 5960 5961 5961 5962 5962 5963 5964 5964 5964 5965 5966 5966 5966 5967 5967 5967 5967 5967 5967 5967 5968 5969 5969 5970 5970 5971 5971 5972 5972 5973 5973 5973 5974 5974 5975 5975 5975 5975 5976 5976 5977 5977 5978 5979 5979 5979 5979 5979 5979 5979 5979 5978 5978 5978 5977 5977 5977 5976 5976 5975 5975 5974 5973 5973 5972 5971 5970 5969 5968 5967 5965 5964 5962 5960 5958 5957 5955 5953 5951 5948
5958 5959 5959 5960 5960 5961 5961 5962 5962 5963 5963 5964 5964 5965 5965 5966 5966 5967 5967 5967 5967 5968 5968 5968 5968 5969 5969 5970 5970 5971 5971 5972 5972 5973 5973 5974 5974 5975 5975 5975 5976 5976 5976 5976 5977 5977 5978 5979 5980 5980 5980 5980 5980 5980 5980 5980 5979 5979 5978 5978 5978 5978 5977 5977 5976 5976 5975 5974 5974 5973 5972 5971 5970 5969 5968 5966 5965 5963 5961 5959 5957 5955 5954 5952 5949
5958 5959 5960 5960 5961 5961 5961 5962 5963 5963 5964 5964 5964 5965 5966 5966 5967 5967 5967 5968 5968 5968 5968 5968 5969 5969 5970 5970 5971 5971 5972 5972 5973 5973 5974 5974 5975 5975 5976 5976 5977 5977 5977 5977 5978 5978 5979 5980 5980 5981 5981 5981 5981 5981 5981 5980 5980 5979 5979 5979 5979 5978 5978 5978 5977 5977 5976 5975 5974 5973 5973 5972 5971 5970 5968 5967 5965 5964 5962 5960 5958 5956 5954 5952 5950
5958 5959 5960 5960 5961 5961 5962 5963 5963 5964 5964 5965 5965 5965 5966 5967 5967 5967 5968 5968 5968 5968 5968 5969 5969 5970 5970 5971 5971 5972 5972 5973 5973 5974 5974 5975 5975 5976 5976 5977 5977 5978 5978 5978 5978 5979 5979 5980 5981 5981 5982 5981 5981 5982 5981 5981 5981 5980 5979 5979 5979 5979 5979 5978 5978 5978 5977 5976 5975 5974 5973 5972 5971 5970 5969 5967 5966 5965 5963 5961 5959 5957 5955 5953 5951
5958 5959 5960 5960 5961 5961 5962 5963 5964 5964 5965 5965 5965 5966 5966 5967 5967 5967 5968 5968 5969 5969 5969 5969 5970 5970 5971 5971 5971 5972 5973 5973 5974 5974 5974 5975 5976 5976 5977 5977 5978 5978 5979 5979 5979 5979 5980 5980 5981 5982 5982 5982 5982 5982 5982 5982 5981 5980 5980 5980 5979 5979 5979 5979 5979 5978 5978 5976 5975 5975 5974 5973 5972 5970 5969 5968 5966 5965 5964 5962 5960 5958 5956 5954 5952
5958 5958 5959 5960 5961 5961 5962 5963 5964 5964 5965 5965 5966 5966 5967 5967 5967 5968 5968 5968 5969 5969 5969 5970 5970 5970 5971 5971 5972 5972 5973 5974 5974 5974 5975 5975 5976 5976 5977 5977 5978 5978 5979 5980 5980 5980 5980 5981 5981 5982 5982 5982 5982 5983 5983 5982 5981 5981 5980 5980 5980 5980 5979 5979 5979 5979 5978 5977 5976 5975 5974 5973 5972 5971 5969 5968 5967 5965 5964 5962 5961 5958 5956 5954 5953
5958 5958 5959 5960 5961 5961 5962 5963 5963 5964 5965 5965 5966 5966 5967 5967 5968 5968 5968 5969 5969 5970 5970 5970 5971 5971 5971 5972 5972 5973 5973 5974 5974 5975 5975 5975 5976 5976 5977 5978 5978 5979 5980 5980 5981 5981 5981 5982 5982 5982 5982 5983 5983 5983 5983 5982 5982 5981 5981 5981 5980 5980 5980 5979 5979 5979 5978 5978 5976 5975 5974 5974 5972 5971 5970 5968 5967 5966 5965 5963 5961 5959 5957 5955 5953
5957 5958 5959 5959 5960 5961 5962 5962 5963 5964 5964 5965 5965 5966 5967 5968 5968 5968 5969 5969 5970 5970 5971 5971 5971 5972 5972 5972 5973 5973 5974 5974 5975 5975 5975 5976 5976 5977 5977 5978 5978 5979 5980 5981 5981 5981 5982 5982 5982 5983 5983 5983 5983 5983 5983 5982 5982 5982 5981 5981 5981 5980 5980 5979 5979 5978 5978 5978 5977 5975 5974 5974 5973 5971 5970 5968 5967 5966 5965 5964 5962 5960 5958 5956 5954
5957 5958 5958 5959 5960 5960 5961 5962 5963 5963 5964 5965 5965 5966 5967 5968 5968 5968 5969 5969 5970 5970 5971 5971 5972 5972 5973 5973 5973 5974 5974 5975 5975 5975 5976 5976 5976 5977 5977 5978 5979 5979 5980 5981 5981 5982 5982 5983 5983 5983 5983 5983 5983 5983 5983 5983 5982 5982 5982 5982 5981 5981 5980 5979 5979 5978 5977 5977 5976 5975 5974 5974 5973 5972 5970 5969 5968 5967 5966 5964 5962 5960 5958 5956 5954
5956 5957 5958 5959 5959 5960 5961 5961 5962 5963 5964 5964 5965 5966 5967 5968 5968 5968 5968 5969 5970 5970 5971 5971 5972 5973 5973 5973 5974 5974 5975 5975 5975 5976 5976 5976 5977 5977 5978 5978 5979 5979 5980 5981 5981 5982 5982 5983 5984 5983 5983 5983 5983 5983 5983 5983 5983 5983 5982 5982 5981 5981 5980 5979 5979 5978 5977 5976 5976 5975 5974 5973 5973 5972 5970 5969 5968 5967 5966 5965 5963 5961 5958 5956 5955
5955 5957 5958 5958 5959 5959 5960 5961 5962 5962 5963 5964 5965 5966 5966 5967 5967 5968 5968 5969 5970 5970 5970 5971 5972 5973 5973 5973 5974 5974 5975 5975 5976 5976 5976 5977 5977 5978 5978 5979 5979 5980 5980 5981 5981 5982 5982 5983 5984 5983 5983 5983 5983 5983 5983 5983 5983 5982 5982 5982 5981 5981 5980 5979 5978 5978 5977 5976 5975 5974 5974 5973 5972 5971 5970 5969 5968 5967 5966 5965 5963 5961 5959 5957 5955
5955 5956 5957 5958 5958 5959 5959 5960 5961 5962 5962 5963 5964 5965 5966 5966 5967 5967 5968 5969 5970 5970 5971 5972 5972 5972 5973 5974 5974 5974 5975 5975 5976 5976 5977 5977 5978 5978 5979 5979 5980 5980 5981 5981 5982 5982 5982 5982 5983 5983 5983 5983 5983 5983 5983 5983 5982 5982 5981 5981 5981 5980 5980 5979 5978 5977 5976 5975 5975 5974 5973 5972 5972 5971 5970 5969 5968 5967 5966 5965 5963 5961 5959 5957 5955
5954 5955 5956 5957 5958 5958 5959 5960 5960 5961 5961 5962 5963 5964 5965 5966 5966 5967 5967 5968 5969 5969 5970 5971 5971 5972 5973 5973 5974 5974 5975 5975 5976 5976 5977 5977 5978 5979 5979 5980 5980 5980 5981 5981 5982 5982 5982 5982 5982 5983 5983 5983 5983 5982 5982 5982 5982 5981 5981 5980 5980 5980 5979 5978 5977 5976 5976 5975 5974 5973 5973 5972 5971 5970 5969 5969 5968 5967 5966 5964 5963 5961 5959 5957 5955
5952 5954 5955 5956 5957 5958 5958 5959 5959 5960 5960 5961 5962 5963 5964 5965 5966 5966 5967 5968 5968 5969 5970 5970 5971 5972 5973 5973 5973 5974 5974 5975 5975 5976 5977 5977 5978 5979 5979 5979 5980 5980 5981 5981 5982 5982 5982 5982 5982 5982 5982 5982 5982 5982 5982 5981 5981 5981 5980 5979 5979 5979 5978 5978 5977 5976 5975 5974 5973 5972 5972 5971 5970 5969 5969 5968 5968 5967 5965 5964 5962 5961 5959 5957 5955
5950 5952 5953 5955 5956 5957 5957 5958 5958 5959 5959 5960 5961 5962 5963 5964 5965 5966 5967 5967 5968 5968 5969 5970 5970 5971 5972 5972 5973 5973 5973 5974 5974 5975 5976 5977 5978 5978 5979 5979 5979 5980 5980 5981 5981 5981 5982 5982 5982 5982 5982 5982 5982 5981 5981 5980 5980 5980 5979 5978 5978 5977 5977 5977 5976 5975 5974 5973 5972 5971 5971 5970 5969 5968 5968 5967 5967 5966 5965 5964 5962 5960 5959 5957 5955
5949 5950 5951 5953 5954 5955 5956 5957 5957 5958 5959 5959 5960 5962 5963 5963 5964 5965 5966 5967 5967 5968 5969 5969 5970 5970 5971 5972 5972 5973 5973 5973 5974 5974 5975 5976 5977 5977 5978 5978 5979 5979 5979 5980 5980 5981 5981 5981 5981 5981 5981 5981 5981 5980 5980 5979 5979 5978 5978 5977 5976 5976 5975 5975 5974 5974 5973 5972 5970 5969 5969 5968 5968 5967 5967 5966 5966 5965 5964 5963 5961 5960 5958 5957 5955
5947 5948 5949 5951 5952 5953 5954 5955 5956 5957 5958 5959 5960 5961 5962 5963 5964 5964 5965 5966 5967 5967 5968 5968 5969 5969 5970 5971 5971 5972 5972 5973 5973 5974 5974 5975 5975 5976 5976 5977 5977 5978 5978 5979 5979 5979 5980 5980 5980 5980 5980 5980 5979 5979 5979 5978 5978 5977 5977 5976 5975 5975 5974 5973 5973 5972 5972 5970 5969 5968 5967 5967 5966 5966 5966 5965 5964 5964 5963 5962 5961 5959 5958 5957 5955
5945 5946 5947 5949 5951 5952 5953 5954 5955 5956 5957 5958 5959 5960 5961 5962 5963 5964 5964 5965 5966 5967 5967 5968 5968 5969 5969 5970 5971 5971 5972 5972 5972 5973 5973 5974 5974 5974 5975 5975 5976 5976 5977 5977 5978 5978 5978 5978 5978 5978 5978 5978 5978 5977 5977 5977 5977 5976 5976 5975 5974 5974 5973 5972 5971 5971 5970 5970 5969 5967 5966 5966 5965 5965 5964 5964 5963 5962 5961 5961 5960 5958 5957 5956 5955
5944 5945 5946 5947 5949 5950 5951 5953 5954 5955 5956 5957 5958 5959 5960 5961 5962 5962 5963 5964 5965 5966 5967 5967 5968 5968 5969 5969 5970 5970 5971 5971 5972 5972 5972 5973 5973 5973 5974 5974 5974 5975 5975 5975 5976 5977 5977 5977 5977 5977 5977 5977 5976 5976 5976 5976 5975 5975 5975 5974 5973 5973 5972 5971 5970 5969 5969 5969 5968 5967 5966 5964 5964 5963 5963 5962 5962 5961 5960 5959 5958 5957 5956 5955 5954
5942 5943 5944 5946 5947 5949 5950 5951 5953 5954 5955 5955 5956 5957 5958 5960 5960 5961 5962 5963 5964 5965 5966 5966 5967 5968 5968 5969 5969 5970 5970 5971 5971 5971 5972 5972 5972 5973 5973 5973 5973 5973 5973 5974 5974 5975 5975 5975 5976 5976 5976 5975 5975 5975 5974 5974 5974 5974 5973 5973 5972 5971 5971 5970 5969 5968 5967 5967 5966 5966 5965 5964 5963 5962 5961 5961 5960 5959 5958 5958 5957 5956 5955 5954 5953
5940 5941 5943 5944 5946 5947 5948 5950 5951 5952 5953 5954 5955 5956 5957 5958 5959 5960 5960 5961 5962 5963 5964 5965 5966 5967 5967 5968 5968 5969 5970 5970 5970 5971 5971 5971 5971 5972 5972 5972 5972 5972 5972 5972 5972 5973 5973 5974 5974 5974 5974 5974 5973 5973 5973 5973 5972 5972 5972 5971 5970 5970 5969 5968 5967 5966 5966 5964 5964 5964 5963 5962 5961 5960 5960 5959 5958 5958 5957 5956 5955 5955 5954 5953 5951
5938 5939 5941 5942 5944 5945 5947 5948 5949 5950 5951 5952 5953 5954 5954 5955 5957 5958 5959 5960 5961 5962 5962 5963 5964 5965 5966 5967 5968 5968 5968 5969 5969 5970 5970 5970 5970 5971 5971 5971 5971 5971 5971 5971 5971 5971 5971 5971 5972 5972 5972 5972 5972 5972 5971 5971 5971 5971 5971 5970 5969 5968 5967 5966 5965 5964 5963 5963 5962 5961 5961 5960 5959 5959 5958 5957 5957 5955 5955 5954 5953 5952 5952 5951 5950
5936 5938 5939 5940 5942 5943 5945 5946 5947 5948 5949 5950 5951 5952 5952 5953 5954 5956 5957 5958 5959 5960 5961 5961 5962 5963 5964 5965 5966 5967 5967 5968 5968 5968 5969 5969 5969 5969 5969 5970 5970 5970 5970 5969 5969 5969 5969 5969 5970 5970 5970 5970 5970 5970 5970 5969 5969 5969 5969 5968 5968 5967 5966 5965 5964 5963 5962 5961 5960 5959 5959 5957 5957 5957 5956 5956 5955 5954 5953 5952 5951 5950 5950 5949 5948
5933 5935 5937 5938 5940 5941 5943 5944 5946 5947 5948 5949 5950 5950 5950 5951 5952 5954 5955 5956 5957 5958 5959 5960 5960 5961 5962 5963 5964 5965 5966 5966 5966 5967 5967 5967 5968 5968 5968 5968 5968 5968 5968 5968 5968 5968 5968 5968 5968 5968 5968 5968 5968 5968 5968 5967 5967 5967 5967 5966 5965 5965 5964 5963 5962 5961 5960 5959 5958 5958 5957 5955 5955 5954 5954 5953 5953 5953 5952 5951 5950 5949 5948 5947 5946
5930 5932 5934 5936 5938 5939 5941 5943 5945 5946 5947 5948 5949 5950 5949 5950 5951 5952 5953 5954 5955 5956 5957 5958 5959 5960 5961 5962 5963 5964 5964 5964 5965 5965 5965 5966 5966 5966 5966 5966 5966 5966 5966 5966 5966 5966 5966 5966 5967 5967 5966 5966 5966 5966 5965 5965 5965 5964 5964 5964 5963 5963 5962 5961 5960 5959 5958 5957 5956 5956 5955 5953 5952 5952 5952 5951 5950 5950 5949 5949 5948 5947 5946 5945 5944
5926 5929 5932 5933 5935 5937 5938 5940 5942 5943 5944 5946 5948 5949 5948 5949 5949 5950 5952 5953 5954 5955 5955 5956 5957 5958 5959 5959 5960 5961 5962 5962 5963 5963 5963 5963 5964 5964 5964 5964 5965 5964 5964 5964 5964 5964 5964 5964 5965 5965 5965 5964 5964 5964 5963 5963 5962 5962 5961 5961 5961 5960 5959 5959 5958 5957 5955 5954 5954 5954 5953 5951 5950 5950 5949 5949 5948 5947 5946 5946 5945 5945 5944 5943 5942
5922 5925 5927 5929 5931 5933 5935 5937 5938 5940 5941 5942 5945 5946 5946 5946 5947 5949 5950 5952 5953 5953 5954 5954 5955 5956 5956 5957 5958 5959 5959 5960 5961 5961 5961 5961 5961 5961 5962 5962 5962 5962 5962 5962 5962 5961 5962 5962 5963 5963 5963 5962 5962 5961 5961 5960 5960 5959 5959 5958 5958 5957 5956 5956 5956 5954 5953 5952 5951 5951 5950 5948 5947 5947 5947 5946 5946 5945 5943 5942 5942 5942 5941 5940 5939
5917 5919 5922 5924 5926 5929 5931 5933 5935 5937 5938 5939 5940 5942 5942 5943 5943 5946 5948 5950 5951 5952 5952 5953 5953 5953 5954 5954 5955 5956 5956 5957 5958 5958 5958 5958 5958 5959 5959 5959 5959 5960 5960 5960 5959 5959 5959 5959 5960 5960 5960 5960 5959 5959 5958 5957 5956 5956 5955 5955 5954 5953 5953 5953 5953 5951 5950 5949 5949 5948 5948 5946 5944 5945 5944 5943 5943 5943 5941 5939 5939 5939 5939 5938 5937
5912 5915 5917 5919 5921 5924 5926 5928 5931 5933 5934 5936 5937 5938 5938 5938 5939 5941 5944 5946 5947 5949 5950 5951 5951 5951 5951 5952 5952 5952 5953 5954 5954 5954 5954 5954 5955 5955 5956 5956 5957 5957 5957 5957 5956 5956 5956 5956 5956 5957 5958 5957 5957 5956 5955 5954 5953 5952 5952 5952 5951 5950 5950 5950 5949 5948 5947 5946 5945 5946 5945 5944 5942 5941 5941 5940 5940 5940 5940 5938 5936 5935 5936 5936 5934
5907 5910 5912 5914 5916 5919 5922 5924 5926 5928 5930 5931 5933 5934 5935 5935 5935 5937 5938 5940 5942 5944 5946 5947 5948 5948 5949 5949 5949 5949 5950 5950 5950 5950 5951 5951 5951 5952 5952 5953 5954 5955 5955 5954 5952 5953 5954 5953 5953 5954 5954 5955 5954 5953 5952 5951 5950 5949 5948 5948 5947 5946 5946 5946 5945 5945 5944 5943 5942 5942 5942 5941 5940 5939 5938 5937 5937 5937 5937 5937 5934 5932 5933 5932 5932
5904 5905 5907 5910 5912 5914 5917 5919 5921 5923 5925 5926 5928 5930 5931 5931 5932 5933 5934 5936 5937 5939 5941 5942 5944 5945 5945 5945 5945 5946 5946 5946 5946 5946 5947 5947 5947 5948 5948 5949 5951 5952 5952 5950 5948 5949 5950 5950 5951 5951 5951 5951 5951 5950 5949 5948 5947 5946 5945 5944 5943 5942 5942 5942 5941 5941 5941 5940 5938 5938 5938 5938 5937 5936 5935 5934 5934 5933 5933 5934 5932 5930 5930 5930 5929